Flag for Austria Weather past 2 weeks in Scheibbs, Lower Austria, Austria

Now
56 °F

Cool.


Feels Like: 56 °F
Forecast: 54 / 73 °F
Wind: 3 mph from East

Location: Amstetten

Current Time: May 3, 2015 at 1:11:46 PM

Latest Report: May 3, 2015 at 12:00 PM


Visibility: N/A

Pressure: 29.85 "Hg

Humidity: 83%

Dew point: 51 °F

Location of ScheibbsLocation

Historic Weather in Scheibbs — Graph

°F

Scheibbs temperature yesterday

Maximum temperature yesterday: 59 °F (at 6:00 PM)
Minimum temperature yesterday: 49 °F (at 11:00 PM)
Average temperature yesterday: 53 °F

Past Weeks' High & Low Weather Summary

 TemperatureHumidityPressure
High77 °F (Apr 27, 5:00 PM)100% (Apr 24, 7:00 AM)30.34 "Hg (Apr 24, 7:00 AM)
Low34 °F (Apr 19, 6:00 AM)24% (Apr 25, 5:00 PM)29.44 "Hg (Apr 27, 6:00 PM)
Average52 °F69%30.00 "Hg
* Reported Apr 18 11:00 AM — May 3 11:00 AM, Scheibbs, Weather by CustomWeather, © 2015

Note: Actual official high and low records may vary slightly from our data, if they occured in-between our weather recording intervals... More about our weather records

Advertising

Scheibbs weather history for previous 24 hours

 ConditionsComfort  
Time TempWeatherWind HumidityBarometerVisibility
11:00 AM
Sun, May 3
54 °FCool.3 mph83%29.87 "HgN/A
10:00 AM53 °FCool.5 mph87%29.87 "HgN/A
9:00 AM51 °FFog.2 mph91%29.88 "HgN/A
8:00 AM49 °FCool.2 mph96%29.88 "HgN/A
7:00 AM48 °FFog.2 mph97%29.90 "HgN/A
6:00 AM48 °FFog.2 mph97%29.89 "HgN/A
5:00 AM47 °FCool.1 mph97%29.90 "HgN/A
4:00 AM47 °FFog.1 mph96%29.91 "HgN/A
3:00 AM47 °FCool.2 mph97%29.91 "HgN/A
2:00 AM48 °FCool.2 mph96%29.92 "HgN/A
1:00 AM48 °FCool.2 mph95%29.93 "HgN/A
12:00 AM49 °FCool.1 mph96%29.94 "HgN/A
11:00 PM
Sat, May 2
49 °FCool.1 mph95%29.95 "HgN/A
10:00 PM51 °FCool.1 mph90%29.94 "HgN/A
9:00 PM53 °FCool.1 mph84%29.93 "HgN/A
8:00 PM56 °FCool.2 mph80%29.92 "HgN/A
7:00 PM58 °FCool.1 mph71%29.91 "HgN/A
6:00 PM59 °FCool.1 mph66%29.90 "HgN/A
5:00 PM58 °FCool.1 mph69%29.89 "HgN/A
4:00 PM59 °FCool.1 mph69%29.89 "HgN/A
3:00 PM57 °FCool.2 mph73%29.89 "HgN/A
2:00 PM56 °FCool.5 mph77%29.89 "HgN/A
1:00 PM53 °FSprinkles. Cloudy.2 mph88%29.90 "HgN/A
Weather by CustomWeather, © 2015

See weather overviewHow to use our weather pages